Content
SEND FEEDBACK

Daily
Averages
Monthly
Summary
United States of America

TAMUNING, GUAM


Home > North America > United States > Guam
Elevation: 250 feet     Latitude: 13 29N     Longitude: 144 47E

WEATHER
 
SELECT A DAY
Number of Records: 342,166;   Date Range: 1/1/95 - 8/12/14
 
SHARE

PRINT THIS DATA

[ ← Previous Day ]
WEATHER ALMANAC - MAY 20, 2013
[ Next Day → ]
[ °C ]   °F
Weather ElementAverageHighLow
Temperature81.8 °F86.4 °F (11:55 am)75.4 °F (1:55 am)
Dewpoint74.2 °F75.2 °F (8:08 am)72.5 °F (9:55 am)
Humidity78.2 %92 % (1:55 am)66 % (9:55 am)
Barometer29.86 in29.90 in (8:55 am)29.84 in (2:55 am)
Wind Speed7.7 mph12.7 mph (1:55 pm)
Wind Gust18.4 mph (9:47 am)
Weather ElementAverage
Visibility10 mi
Wind DirectionENE (72.4 °)

Weather ElementTotal
Precipitation---
Cooling Degree Days15.9 (Base 65)
Growing Degree Days30.9 (Base 50)
Averaged from 41 records on May 20, 2013
WEATHER CONDITIONS BREAKOUT
WIND DIRECTION BREAKOUT
WEATHER BY HOUR - MAY 20, 2013
[ °C ]   °F
Local TimeTemperatureDewpointHumidityBarometerVisibilityWind DirectionWind SpeedGust SpeedPrecipitationEventsConditions
1:55 AM75.4 °F73.0 °F92 %29.85 in10.0 miCalmClear
2:55 AM77.2 °F73.9 °F90 %29.84 in10.0 miCalmPartly Cloudy
3:53 AM77.0 °F73.4 °F89 %29.84 in10.0 miCalmMostly Cloudy
3:55 AM77.5 °F73.9 °F89 %29.84 in10.0 miCalmMostly Cloudy
4:07 AM77.0 °F73.4 °F89 %29.84 in10.0 miESE (110°)3.5 mphScattered Clouds
4:41 AM77.0 °F73.4 °F89 %29.85 in10.0 miCalmMostly Cloudy
4:55 AM77.9 °F74.1 °F88 %29.85 in10.0 miEast (100°)3.5 mphMostly Cloudy
5:11 AM77.0 °F73.4 °F89 %29.85 in10.0 miEast (100°)3.5 mphScattered Clouds
5:18 AM78.8 °F73.4 °F83 %29.85 in10.0 miEast (90°)4.6 mphMostly Cloudy
5:20 AM77.0 °F73.4 °F89 %29.85 in10.0 miEast (90°)3.5 mphMostly Cloudy
5:27 AM77.0 °F73.4 °F89 %29.85 in10.0 miEast (80°)5.8 mphScattered Clouds
5:55 AM77.5 °F73.8 °F88 %29.86 in10.0 miENE (70°)6.9 mphPartly Cloudy
6:55 AM79.9 °F74.3 °F83 %29.87 in10.0 miENE (70°)8.1 mphPartly Cloudy
7:55 AM81.9 °F74.5 °F78 %29.89 in10.0 miENE (70°)8.1 mphPartly Cloudy
8:08 AM80.6 °F75.2 °F84 %29.89 in10.0 miENE (70°)8.1 mphMostly Cloudy
8:55 AM84.0 °F74.7 °F73 %29.90 in10.0 miENE (70°)10.4 mphMostly Cloudy
9:47 AM84.2 °F73.4 °F70 %29.90 in10.0 miENE (60°)10.4 mph18.4 mphScattered Clouds
9:55 AM84.9 °F72.5 °F66 %29.90 in10.0 miNE (50°)11.5 mphScattered Clouds
10:47 AM86.0 °F75.2 °F70 %29.89 in10.0 miENE (70°)11.5 mphMostly Cloudy
10:55 AM85.5 °F73.8 °F68 %29.89 in10.0 miNE (40°)10.4 mphMostly Cloudy
11:15 AM86.0 °F75.2 °F70 %29.88 in10.0 miEast (80°)11.5 mphScattered Clouds
11:55 AM86.4 °F74.8 °F68 %29.88 in10.0 miEast (90°)11.5 mphPartly Cloudy
12:55 PM86.0 °F74.8 °F69 %29.86 in10.0 miEast (80°)11.5 mphPartly Cloudy
1:22 PM86.0 °F75.2 °F70 %29.85 in10.0 miEast (100°)11.5 mphMostly Cloudy
1:55 PM85.3 °F75.2 °F72 %29.85 in10.0 miEast (100°)12.7 mphMostly Cloudy
2:15 PM86.0 °F75.2 °F70 %29.85 in10.0 miESE (110°)9.2 mphScattered Clouds
2:17 PM86.0 °F75.2 °F70 %29.85 in10.0 miEast (90°)9.2 mphMostly Cloudy
2:26 PM86.0 °F75.2 °F70 %29.84 in10.0 miEast (90°)8.1 mphScattered Clouds
2:28 PM86.0 °F75.2 °F70 %29.84 in10.0 miEast (90°)10.4 mphMostly Cloudy
2:35 PM86.0 °F75.2 °F70 %29.84 in10.0 miEast (100°)10.4 mphScattered Clouds
2:55 PM85.5 °F74.1 °F69 %29.84 in10.0 miEast (100°)9.2 mph18.4 mphScattered Clouds
3:07 PM86.0 °F73.4 °F66 %29.84 in10.0 miEast (90°)9.2 mphRainLight Rain
3:55 PM84.7 °F73.6 °F69 %29.84 in10.0 miEast (90°)10.4 mph0.00 inClear
4:55 PM83.8 °F74.7 °F74 %29.84 in10.0 miEast (90°)10.4 mphPartly Cloudy
5:55 PM82.0 °F74.3 °F77 %29.85 in10.0 miEast (90°)10.4 mphScattered Clouds
6:55 PM81.0 °F73.9 °F79 %29.87 in10.0 miEast (90°)8.1 mphScattered Clouds
7:55 PM80.1 °F73.9 °F81 %29.88 in10.0 miENE (70°)8.1 mphPartly Cloudy
8:55 PM79.7 °F74.1 °F83 %29.89 in10.0 miENE (60°)10.4 mphPartly Cloudy
9:55 PM79.0 °F74.3 °F85 %29.90 in10.0 miENE (70°)6.9 mphPartly Cloudy
10:55 PM79.9 °F74.7 °F84 %29.90 in10.0 miENE (70°)9.2 mphScattered Clouds
11:55 PM79.3 °F74.1 °F84 %29.89 in10.0 miEast (80°)9.2 mphScattered Clouds
Hourly data recorded from PGUA, located miles away from Tamuning, Guam







STORIES FROM OUR PARTNERS